Location: Bagnolo San Vito
(45.0833°N, 10.8833°E)
Time: 14:19:00
(UTC+00:00)

HJ-1C - Pass Details

Date: 03 March 2021
Orbit: 428 x 440 km, 97.1° (Epoch: 14 April)

Event Time Altitude Azimuth Distance (km) Brightness Sun altitude
Rises 18:31:10 0° 179° (S) 2,414 7.0 -15.7°
Reaches altitude 10° 18:33:14 10° 186° (S) 1,548 6.1 -16.1°
Maximum altitude 18:36:26 46° 261° (W) 601 4.5 -16.6°
Drops below altitude 10° 18:39:40 10° 336° (NNW) 1,555 6.5 -17.2°
Sets 18:41:44 0° 343° (NNW) 2,427 7.5 -17.5°
